Terminal Aerodrome Forecast
Issued by NWS

Home | Current Version | Previous Version | Text Only | Print | Product List | Glossary Off
Versions: 1 2 3 4 5 6 7 8 9 10 11 12 13 14 15 16

000
FTUS43 KICT 212233 AAA
TAFSLN
TAF AMD
KSLN 212233Z 2123/2218 20013G20KT P6SM VCTS BKN100CB
     FM220300 22005KT P6SM TSRA SCT025CB BKN050
     FM221100 30004KT P6SM BKN130
     FM221700 02009KT P6SM SCT060=

USA.gov is the U.S. government's official web portal to all federal, state and local government web resources and services.